Terminal Aerodrome Forecast
Issued by NWS Mt. Holly, NJ

Home | Current Version | Previous Version | Text Only | Print | Product List | Glossary On
Versions: 1 2 3 4 5 6 7 8 9 10 11 12 13 14 15 16 17 18 19 20 21 22 23 24 25 26 27 28 29 30 31 32 33 34 35 36 37
000
FTAK31 PANC 300531
TAFABE
TAF
PABE 300531Z 3006/3106 33023G28KT P6SM VCSH SCT040 BKN060
      TEMPO 3006/3010 33012KT SCT020 BKN030
     FM302100 30021KT P6SM BKN007=

USA.gov is the U.S. government's official web portal to all federal, state and local government web resources and services.